TimeEST,TemperatureF,Dew PointF,Humidity,Sea Level PressureIn,VisibilityMPH,Wind Direction,Wind SpeedMPH,Gust SpeedMPH,PrecipitationIn,Events,Conditions,WindDirDegrees,DateUTC
12:15 AM,30.2,26.6,86,29.65,3.0,NE,11.5,18.4,N/A,,Overcast,50,2013-02-27 05:15:00
12:35 AM,30.2,26.6,86,29.65,2.5,NE,12.7,17.3,N/A,,Overcast,40,2013-02-27 05:35:00
12:55 AM,30.2,26.6,86,29.64,1.8,NE,13.8,19.6,N/A,,Overcast,40,2013-02-27 05:55:00
1:15 AM,30.2,26.6,86,29.64,2.5,NE,12.7,19.6,N/A,,Overcast,50,2013-02-27 06:15:00
1:35 AM,30.2,26.6,86,29.63,1.8,NE,13.8,-,N/A,,Overcast,50,2013-02-27 06:35:00
1:55 AM,30.2,26.6,86,29.62,2.5,NE,13.8,21.9,N/A,,Overcast,40,2013-02-27 06:55:00
2:15 AM,30.2,26.6,86,29.62,5.0,NE,13.8,19.6,N/A,,Overcast,50,2013-02-27 07:15:00
2:35 AM,32.0,26.6,80,29.61,5.0,NE,12.7,19.6,N/A,,Mostly Cloudy,50,2013-02-27 07:35:00
2:55 AM,32.0,26.6,80,29.61,3.0,NE,12.7,17.3,N/A,,Overcast,50,2013-02-27 07:55:00
3:15 AM,30.2,28.4,93,29.60,2.0,NE,10.4,-,N/A,,Overcast,40,2013-02-27 08:15:00
3:35 AM,30.2,28.4,93,29.59,1.8,NNE,10.4,-,N/A,,Overcast,30,2013-02-27 08:35:00
3:55 AM,32.0,28.4,87,29.59,1.8,NNE,9.2,-,N/A,,Overcast,30,2013-02-27 08:55:00
4:15 AM,32.0,28.4,87,29.58,2.0,NE,9.2,-,N/A,,Overcast,40,2013-02-27 09:15:00
4:35 AM,32.0,28.4,87,29.58,1.5,NNE,9.2,-,N/A,,Overcast,30,2013-02-27 09:35:00
4:55 AM,32.0,28.4,87,29.58,1.5,NNE,8.1,-,N/A,,Overcast,30,2013-02-27 09:55:00
5:55 AM,32.0,28.4,87,29.58,2.5,NE,9.2,-,0.01,,Overcast,40,2013-02-27 10:55:00
6:15 AM,32.0,28.4,87,29.58,2.5,NNE,8.1,-,N/A,,Overcast,30,2013-02-27 11:15:00
6:35 AM,32.0,28.4,87,29.58,3.0,NE,9.2,18.4,N/A,,Overcast,40,2013-02-27 11:35:00
6:55 AM,32.0,28.4,87,29.58,2.5,NE,11.5,17.3,N/A,,Overcast,40,2013-02-27 11:55:00
7:15 AM,32.0,28.4,87,29.59,2.5,NE,10.4,16.1,N/A,,Overcast,40,2013-02-27 12:15:00
7:35 AM,32.0,28.4,87,29.59,1.2,NE,10.4,17.3,0.01,,Overcast,40,2013-02-27 12:35:00
7:55 AM,32.0,28.4,87,29.59,1.5,NE,12.7,17.3,0.01,,Overcast,40,2013-02-27 12:55:00
8:15 AM,32.0,28.4,87,29.59,1.2,NNE,12.7,19.6,N/A,,Overcast,30,2013-02-27 13:15:00
8:35 AM,32.0,28.4,87,29.60,1.5,NE,9.2,16.1,N/A,,Overcast,40,2013-02-27 13:35:00
8:55 AM,33.8,28.4,81,29.59,3.0,NE,13.8,17.3,N/A,,Mostly Cloudy,40,2013-02-27 13:55:00
9:15 AM,33.8,28.4,81,29.59,10.0,NE,10.4,16.1,0.02,,Overcast,40,2013-02-27 14:15:00
9:35 AM,33.8,28.4,81,29.59,6.0,NE,15.0,19.6,0.02,,Mostly Cloudy,50,2013-02-27 14:35:00
10:15 AM,33.8,28.4,81,29.60,10.0,NE,11.5,17.3,N/A,,Overcast,40,2013-02-27 15:15:00
10:35 AM,33.8,28.4,81,29.60,10.0,NE,10.4,-,N/A,,Overcast,40,2013-02-27 15:35:00
10:55 AM,35.6,30.2,81,29.60,10.0,NE,10.4,-,N/A,,Overcast,40,2013-02-27 15:55:00
11:15 AM,35.6,28.4,75,29.60,10.0,NE,12.7,17.3,N/A,,Overcast,50,2013-02-27 16:15:00
11:35 AM,35.6,28.4,75,29.60,10.0,NE,10.4,-,N/A,,Overcast,50,2013-02-27 16:35:00
11:55 AM,35.6,28.4,75,29.60,10.0,NE,9.2,16.1,N/A,,Overcast,40,2013-02-27 16:55:00
12:15 PM,35.6,28.4,75,29.60,10.0,NNE,10.4,-,N/A,,Overcast,30,2013-02-27 17:15:00
12:35 PM,35.6,28.4,75,29.60,10.0,NNE,8.1,-,N/A,,Overcast,20,2013-02-27 17:35:00
12:55 PM,35.6,28.4,75,29.60,10.0,NNE,11.5,-,N/A,,Overcast,30,2013-02-27 17:55:00
1:15 PM,35.6,28.4,75,29.60,10.0,NNE,6.9,-,N/A,,Overcast,20,2013-02-27 18:15:00
1:35 PM,35.6,28.4,75,29.59,10.0,NNE,9.2,-,N/A,,Overcast,30,2013-02-27 18:35:00
1:55 PM,35.6,28.4,75,29.59,10.0,NNE,8.1,-,N/A,,Overcast,20,2013-02-27 18:55:00
2:15 PM,35.6,28.4,75,29.59,10.0,NNE,9.2,-,N/A,,Overcast,20,2013-02-27 19:15:00
2:35 PM,35.6,28.4,75,29.59,10.0,NNE,9.2,-,N/A,,Overcast,20,2013-02-27 19:35:00
2:55 PM,35.6,28.4,75,29.60,10.0,North,11.5,-,N/A,,Overcast,360,2013-02-27 19:55:00
3:15 PM,35.6,28.4,75,29.60,10.0,North,8.1,-,N/A,,Overcast,10,2013-02-27 20:15:00
3:35 PM,35.6,28.4,75,29.60,10.0,NNE,9.2,-,N/A,,Overcast,20,2013-02-27 20:35:00
3:55 PM,35.6,28.4,75,29.60,10.0,NNE,8.1,-,N/A,,Overcast,20,2013-02-27 20:55:00
4:15 PM,35.6,28.4,75,29.61,10.0,North,8.1,-,N/A,,Overcast,10,2013-02-27 21:15:00
4:35 PM,35.6,28.4,75,29.62,10.0,North,8.1,-,N/A,,Overcast,360,2013-02-27 21:35:00
4:55 PM,35.6,28.4,75,29.62,10.0,North,5.8,-,N/A,,Overcast,360,2013-02-27 21:55:00
5:15 PM,35.6,28.4,75,29.63,10.0,NNE,9.2,-,N/A,,Overcast,20,2013-02-27 22:15:00
5:35 PM,35.6,28.4,75,29.63,10.0,NNE,8.1,-,N/A,,Overcast,20,2013-02-27 22:35:00
5:55 PM,35.6,28.4,75,29.64,10.0,North,9.2,-,N/A,,Overcast,10,2013-02-27 22:55:00
6:15 PM,35.6,28.4,75,29.64,10.0,NNE,6.9,-,N/A,,Overcast,30,2013-02-27 23:15:00
6:35 PM,35.6,28.4,75,29.65,10.0,NNE,6.9,-,N/A,,Overcast,20,2013-02-27 23:35:00
6:55 PM,33.8,28.4,81,29.66,9.0,NNE,11.5,17.3,N/A,,Overcast,20,2013-02-27 23:55:00
7:15 PM,33.8,28.4,81,29.67,10.0,North,9.2,-,N/A,,Overcast,10,2013-02-28 00:15:00
7:35 PM,33.8,28.4,81,29.67,5.0,North,5.8,16.1,N/A,,Overcast,10,2013-02-28 00:35:00
7:55 PM,33.8,28.4,81,29.68,4.0,NNE,6.9,-,N/A,,Overcast,20,2013-02-28 00:55:00
8:15 PM,33.8,28.4,81,29.68,7.0,NNE,5.8,-,N/A,,Overcast,20,2013-02-28 01:15:00
8:35 PM,33.8,28.4,81,29.68,3.0,North,6.9,-,N/A,,Overcast,10,2013-02-28 01:35:00
9:15 PM,33.8,28.4,81,29.69,5.0,North,8.1,-,N/A,,Overcast,10,2013-02-28 02:15:00
9:35 PM,33.8,30.2,87,29.69,4.0,North,6.9,-,0.01,,Overcast,360,2013-02-28 02:35:00
9:55 PM,33.8,28.4,81,29.69,9.0,North,6.9,-,0.01,,Overcast,360,2013-02-28 02:55:00
10:15 PM,33.8,28.4,81,29.69,10.0,NNE,10.4,-,N/A,,Overcast,20,2013-02-28 03:15:00
10:35 PM,33.8,28.4,81,29.69,10.0,NNE,9.2,-,N/A,,Overcast,20,2013-02-28 03:35:00
10:55 PM,33.8,28.4,81,29.69,7.0,North,6.9,-,N/A,,Overcast,10,2013-02-28 03:55:00
11:15 PM,33.8,28.4,81,29.69,8.0,North,6.9,-,N/A,,Overcast,10,2013-02-28 04:15:00
11:35 PM,33.8,28.4,81,29.70,7.0,North,4.6,-,N/A,,Overcast,10,2013-02-28 04:35:00
11:55 PM,33.8,28.4,81,29.69,7.0,North,5.8,-,N/A,,Overcast,10,2013-02-28 04:55:00